RH
73 60 63 52 39 47 50 45 49 41 45 48 46 48 28 22 22 20 20 20 22 33 33 33 32 28 28 28 25 27 26 26 21 18 16 26 38 42 59 77 87 72 68
78 66 59 56 42 38 49 52 48 43 42 49 53 46 30 24 20 19 21 20 25 22 32 35 39 32 30 26 26 30 38 35 32 28 22 18 20 18 26 37 65 77 77
70 62 62 57 50 50 48 53 50 45 38 39 40 36 30 31 24 22 24 33 36 43 43 47 52 52 42 43 41 30 27 27 25 37 39 35 28 22 34 42 69 100 98
75 80 72 64 58 63 61 48 46 46 41 46 43 41 36 42 28 27 28 38 45 42 48 46 46 49 50 49 50 48 37 28 25 32 47 55 54 41 40 49 100 100 100
53 88 80 60 55 47 51 56 59 49 40 47 51 42 32 37 40 35 44 60 55 50 47 52 52 52 54 50 46 45 46 40 35 26 26 29 50 56 51 60 100 100 100
60 75 68 66 80 57 62 73 72 58 48 37 38 30 29 39 50 43 39 57 56 52 48 49 47 44 45 44 41 39 37 36 41 32 28 30 35 58 61 92 100 100 100
43 44 43 54 59 61 65 63 58 51 44 33 32 33 32 37 38 43 43 42 46 51 59 55 49 38 36 33 27 28 32 34 38 37 32 32 41 60 72 79 100 100 100
52 60 69 72 66 69 76 73 56 48 41 40 37 34 38 37 30 33 39 41 39 36 38 41 39 35 30 22 17 25 34 42 49 46 45 40 51 64 75 85 70 86 100
56 62 74 67 67 74 65 60 57 49 42 34 36 42 47 58 61 63 51 49 53 47 45 38 34 30 26 21 21 29 42 48 58 55 56 51 52 66 81 92 90 73 69
54 57 65 59 56 53 51 47 44 41 35 30 35 27 19 22 22 30 41 44 36 35 33 32 33 29 26 22 21 22 26 38 50 51 62 60 56 64 100 100 100 100 100
67 73 78 71 64 55 48 54 52 61 50 51 24 16 13 12 12 12 13 20 20 21 23 21 27 29 26 23 21 27 36 42 46 50 61 64 57 78 100 100 100 100 100
70 79 77 74 66 64 62 62 60 60 39 39 31 28 25 21 16 13 12 13 15 14 20 28 27 26 26 25 24 21 28 36 42 36 62 67 69 97 99 100 100 100 100
70 65 62 78 79 64 49 49 44 38 38 38 33 24 21 19 18 15 14 14 19 23 24 28 26 25 24 26 27 24 20 22 43 61 58 64 69 96 100 100 100 100 100
74 84 71 72 49 32 29 26 22 24 24 28 27 25 23 20 18 15 14 16 19 29 32 35 41 33 25 28 29 25 21 20 22 67 93 85 86 87 100 100 100 100 100
69 77 69 68 42 27 23 21 22 23 32 34 31 28 24 20 17 16 17 27 30 37 41 46 43 38 36 32 31 27 21 18 22 55 98 100 100 100 100 100 100 100 91
66 58 54 56 50 36 27 23 22 36 46 44 40 32 24 21 17 17 19 27 48 62 54 54 51 45 43 37 34 29 22 20 23 47 77 100 97 100 100 100 100 100 100
52 45 46 49 35 36 37 34 32 42 52 54 47 39 22 21 18 20 21 23 34 60 75 84 57 45 41 43 41 35 25 23 33 68 100 100 100 100 100 100 100 100 100
56 44 48 45 44 50 48 50 60 62 64 61 54 32 22 18 16 16 19 41 88 95 86 86 62 45 46 55 49 44 33 30 80 100 94 100 100 100 100 100 100 100 100
49 44 48 63 62 62 60 64 68 72 72 66 41 26 20 17 16 17 19 50 90 100 100 99 77 47 54 68 54 50 41 33 50 100 100 100 100 100 100 100 100 100 100
58 54 57 62 69 80 76 78 80 87 74 59 34 25 21 18 18 19 20 50 99 100 100 100 68 49 53 68 58 57 53 43 40 77 100 100 100 100 100 100 96 100 100
73 74 87 82 79 91 88 93 99 84 70 46 34 24 21 20 21 22 36 92 100 100 100 92 70 60 53 66 74 70 63 59 58 100 91 100 100 100 100 100 100 100 100
82 81 85 95 100 100 100 100 91 78 71 47 32 24 21 23 29 41 27 78 99 100 100 100 100 94 62 54 78 87 84 72 62 54 98 100 100 100 100 100 100 100 100
85 94 97 100 100 100 99 100 96 87 69 43 29 23 21 24 26 37 34 52 100 96 100 100 100 100 92 66 76 88 90 80 74 62 49 61 96 100 100 100 100 100 100
88 89 100 100 100 98 100 98 92 92 72 53 29 24 20 22 36 36 51 49 96 100 100 100 100 100 100 93 98 96 92 76 75 70 64 60 47 48 62 81 94 99 100
96 99 100 100 100 100 100 100 100 86 74 59 32 26 22 27 39 40 46 75 70 100 100 97 92 86 99 100 100 100 100 92 81 72 63 55 57 53 49 47 45 42 43
100 98 100 100 100 100 100 100 100 88 73 53 38 34 31 33 39 43 49 72 84 82 96 100 100 77 91 84 86 93 85 92 85 86 67 43 35 34 36 39 45 47 47
Wind_Speed
45 42 41 39 35 34 33 31 30 27 29 28 25 25 26 26 25 25 24 21 21 21 24 25 27 29 31 29 28 29 29 30 32 33 36 39 40 42 39 38 39 43 43
47 45 43 39 36 36 36 34 30 29 31 31 30 27 25 26 25 26 26 25 24 24 23 25 26 27 29 32 32 31 32 30 33 34 36 37 38 38 38 36 37 37 38
49 47 44 43 39 34 34 36 34 35 33 33 29 29 27 28 27 26 26 28 28 26 26 25 23 26 27 29 31 35 34 35 36 37 37 36 38 38 36 35 36 32 33
51 48 45 42 42 41 38 38 36 34 37 36 33 32 28 28 29 28 28 28 29 30 31 29 29 28 28 30 30 31 34 36 36 38 39 38 36 37 35 35 32 32 30
49 49 47 46 46 42 39 39 37 37 34 35 35 33 33 33 32 32 29 29 32 31 34 33 32 31 30 32 33 33 33 35 36 38 39 40 39 36 35 34 32 32 32
48 48 46 44 44 43 40 39 40 36 35 33 32 31 31 31 34 34 33 31 34 33 36 36 35 34 34 32 33 36 37 37 36 36 39 38 39 38 35 34 32 32 33
47 45 45 45 45 44 44 41 40 34 33 34 35 32 31 34 36 37 39 39 37 38 40 39 37 36 35 36 38 39 41 42 40 37 36 35 36 37 37 37 36 35 36
50 48 46 45 43 44 43 43 43 42 39 37 39 43 43 42 40 43 43 42 41 40 41 43 41 37 37 39 39 43 42 41 40 36 34 35 35 37 38 40 41 42 37
54 52 48 48 45 43 41 41 41 41 43 43 43 43 43 40 34 31 37 39 38 39 38 39 42 43 44 42 40 41 40 39 38 35 34 35 35 35 36 38 39 43 46
56 55 52 50 46 46 46 46 46 47 48 48 47 48 44 45 45 46 48 47 49 46 46 46 46 47 47 46 42 42 41 41 39 38 36 34 34 34 34 32 35 36 38
60 56 54 52 52 51 50 48 47 44 45 44 44 44 45 44 44 45 47 46 47 48 50 49 48 48 47 45 42 41 39 39 37 37 39 39 35 37 39 39 37 38 38
59 58 57 56 54 53 53 51 48 47 44 43 41 40 40 42 42 45 48 48 50 50 48 47 46 45 43 43 42 41 42 42 40 37 38 40 39 39 39 41 41 41 41
64 61 60 58 54 53 52 51 49 48 46 44 45 46 46 47 47 49 50 51 52 52 50 48 47 46 44 44 43 42 40 42 41 39 37 40 40 41 42 39 43 45 43
64 62 60 59 55 52 52 52 50 50 49 48 47 47 47 47 50 50 53 53 54 50 50 47 47 46 44 41 42 40 39 40 41 42 39 39 41 45 46 49 49 50 51
66 65 63 61 60 57 54 52 52 51 50 48 47 48 49 50 51 53 53 51 52 51 49 47 45 43 42 41 39 37 37 39 40 40 41 36 39 39 35 47 49 48 54
69 65 65 66 62 61 58 57 55 52 50 50 49 49 50 51 52 52 52 50 48 46 45 43 41 40 41 42 39 35 35 35 38 37 38 37 30 41 44 44 37 45 52
70 68 66 66 63 62 60 59 58 56 55 53 52 53 50 53 52 52 52 49 45 43 40 40 39 40 38 37 37 34 33 32 34 33 39 34 38 43 46 46 47 52 57
73 71 68 66 65 64 61 59 59 59 58 55 57 52 52 52 53 51 48 42 42 44 42 40 39 37 37 36 34 35 32 30 30 35 35 41 47 47 50 50 52 54 57
75 74 71 69 67 66 63 63 63 61 60 57 53 51 52 52 50 47 45 42 42 42 45 44 40 36 36 36 34 34 33 33 31 36 42 48 50 54 57 54 56 60 61
76 76 75 74 69 69 67 66 65 61 57 54 54 51 53 51 48 46 43 43 43 41 44 43 39 36 33 36 35 34 33 33 32 34 45 53 58 62 60 61 63 66 67
81 77 73 73 69 69 68 67 65 60 58 55 54 53 53 49 49 46 43 42 41 40 43 46 44 37 33 35 35 36 36 36 36 37 36 59 60 62 65 65 62 65 60
84 83 80 75 71 71 70 68 67 65 61 58 57 54 53 51 50 47 45 48 46 45 43 43 44 40 35 36 38 38 38 39 39 41 43 45 51 51 62 59 69 68 66
85 84 81 78 74 70 70 70 69 66 60 59 56 55 54 53 52 50 50 49 46 47 45 43 41 43 39 38 39 40 41 42 42 44 47 50 51 48 51 53 50 53 52
89 87 84 82 80 76 74 75 71 67 61 61 59 58 57 55 54 51 53 53 50 47 48 50 45 45 43 43 43 43 45 44 44 43 47 49 53 56 56 56 56 57 59
95 92 89 87 83 79 77 75 73 68 66 64 62 61 60 58 55 52 52 49 52 51 50 51 52 51 46 46 46 46 46 46 47 45 46 48 51 53 56 58 60 60 60
100 97 93 90 86 82 80 78 75 69 69 68 66 64 61 57 54 52 51 52 55 58 55 51 53 53 52 52 50 49 48 48 47 46 47 47 47 48 50 53 54 55 56
Wind_Direction
244 249 249 250 243 244 242 244 244 251 251 261 261 260 249 246 244 244 246 248 250 251 247 248 248 251 255 257 258 257 261 262 260 259 256 256 258 261 266 268 270 268 271
243 247 246 249 248 248 248 244 245 254 257 260 263 257 249 246 247 247 250 256 259 259 254 255 257 255 254 254 257 258 261 262 264 262 263 262 262 262 264 267 269 270 271
245 248 247 250 249 250 248 247 251 254 256 257 262 256 252 243 249 248 255 258 257 256 256 258 259 262 260 258 260 258 258 261 264 262 261 262 263 262 263 266 264 265 266
242 244 247 248 249 253 253 251 254 257 260 257 260 255 251 248 247 255 258 256 258 260 257 260 262 266 266 262 261 259 259 259 260 260 263 266 265 263 258 261 264 263 263
244 240 242 248 247 251 251 254 256 254 260 254 255 256 255 256 253 254 256 254 258 261 258 261 262 268 265 263 262 263 264 264 264 262 265 267 265 264 260 261 260 263 260
238 238 243 245 245 247 249 250 253 254 256 257 253 257 256 258 256 250 256 260 262 265 261 260 263 263 263 265 269 268 268 268 270 267 266 264 263 262 260 256 251 256 256
239 237 241 244 245 249 247 248 251 253 254 255 252 252 255 261 261 255 261 264 264 263 258 258 257 260 264 267 269 268 266 265 267 268 266 263 263 259 259 251 253 252 256
241 241 243 246 247 248 250 249 247 249 253 257 257 258 261 265 263 262 262 263 265 266 259 259 262 264 266 277 277 271 267 265 266 265 264 263 259 258 257 255 253 254 255
237 240 243 245 243 243 245 247 245 247 256 260 259 259 260 257 256 258 252 256 257 262 261 266 269 270 273 276 274 271 270 266 263 262 262 261 258 255 256 257 257 259 263
238 238 239 240 238 242 245 250 251 255 258 261 258 264 264 263 262 255 260 265 266 266 265 268 268 267 271 273 272 270 269 266 263 260 256 257 256 253 255 253 253 255 256
238 236 235 238 241 243 246 250 251 252 257 259 261 265 267 268 269 268 267 266 265 267 268 268 269 269 270 267 268 267 266 266 261 258 256 253 252 252 249 248 248 251 255
235 234 235 240 242 245 247 248 249 252 251 256 261 264 267 272 274 274 272 272 271 269 270 269 267 266 266 266 264 267 264 263 261 259 255 253 252 249 251 251 248 249 253
233 236 240 242 242 245 247 248 249 249 252 259 265 270 272 275 277 276 277 274 272 271 270 269 270 268 267 264 263 265 261 258 256 255 253 249 245 244 245 241 251 251 251
234 238 243 244 245 244 246 246 246 249 256 260 267 271 275 275 277 278 274 272 271 269 269 268 271 272 268 262 263 263 258 255 252 249 252 250 244 245 245 247 249 255 258
234 236 239 239 240 243 245 247 249 252 257 264 267 271 274 277 277 277 276 272 272 271 271 273 271 268 265 263 261 262 255 255 250 249 247 249 249 249 249 254 258 262 260
235 236 239 240 241 244 245 247 251 255 260 262 266 271 274 275 274 273 272 271 269 268 271 271 268 263 263 264 260 260 254 251 249 246 247 244 248 247 247 251 256 250 256
235 237 238 240 242 244 246 250 253 255 257 262 266 273 269 273 272 271 268 267 266 265 264 264 264 265 265 258 259 257 251 252 244 241 240 238 229 233 242 245 243 245 251
236 237 237 239 241 243 245 247 251 254 257 262 268 268 270 269 267 267 266 263 262 260 261 260 262 266 265 257 257 258 253 251 244 243 235 220 223 225 236 238 247 250 260
235 236 237 239 241 243 245 248 253 255 258 264 264 265 267 267 266 266 263 255 258 259 261 259 261 264 261 257 255 257 252 248 246 243 229 219 224 230 237 245 254 259 265
234 236 238 239 241 244 246 249 252 255 257 260 261 261 263 262 261 262 260 249 254 259 259 258 259 261 262 260 254 257 256 253 250 241 234 227 233 236 245 248 254 258 263
234 234 235 238 240 243 246 247 249 251 253 253 257 256 259 258 259 257 254 245 249 254 258 259 258 258 262 261 256 256 255 255 249 244 245 233 237 240 243 249 254 259 264
234 234 235 237 237 238 242 244 247 250 252 253 253 252 253 253 255 256 255 245 246 250 254 259 259 255 259 263 259 257 255 256 253 249 242 240 244 247 249 259 254 259 264
233 234 234 235 234 235 238 242 246 247 250 251 248 248 249 251 254 255 255 247 246 248 251 253 255 258 259 261 261 259 257 256 256 253 250 248 246 246 247 249 249 252 256
233 231 232 234 236 238 239 242 243 245 244 244 243 244 246 249 250 253 252 250 243 247 250 253 253 254 258 260 261 262 261 261 262 261 259 256 254 254 254 255 257 258 259
230 230 230 232 234 235 238 240 241 244 244 243 243 246 245 247 248 251 249 251 243 248 253 254 255 256 255 257 259 262 263 265 265 266 268 264 260 259 260 260 261 263 263
229 230 230 232 233 234 236 238 242 240 241 241 241 244 242 245 248 249 248 247 247 247 249 256 256 256 255 257 257 260 262 266 270 269 270 264 262 263 264 265 266 267 269